Location: Lombard
(41.8800°N, 88.0080°W)
Time: 17:34:07
(UTC-06:00)

Vanguard 3 - Pass Details

Date: 14 December 2023
Orbit: 508 x 3239 km, 33.4° (Epoch: 23 February)

Event Time Altitude Azimuth Distance (km) Brightness Sun altitude
Rises 23:00:15 0° 274° (W) 6,475 11.9 -69.0°
Reaches altitude 10° 23:05:26 10° 269° (W) 5,058 11.2 -69.5°
Enters shadow 23:05:37 10° 269° (W) 5,009 11.2 -69.5°
